Flag for U.S.A. Weather past 2 weeks in Wright, Florida, U.S.A.

Now
77 °F

Sunny.


Feels Like: 79 °F
Forecast: 77 / 94 °F
Wind: 6 mph from North

Location: Hurlburt Field

Current Time: Aug 22, 2014 at 7:18:56 AM

Latest Report: Aug 22, 2014 at 6:58 AM


Visibility: 10 mi

Pressure: 30.09 "Hg

Humidity: 85%

Dew point: 72 °F

Location of WrightLocation

Historic Weather in Wright — Graph

°F

Wright temperature yesterday

Maximum temperature yesterday: 91 °F (at 1:58 PM)
Minimum temperature yesterday: 77 °F (at 3:58 AM)
Average temperature yesterday: 84 °F

Past Weeks' High & Low Weather Summary

 TemperatureHumidityPressure
High93 °F (Aug 11, 3:58 PM)87% (Aug 8, 5:58 AM)30.14 "Hg (Aug 8, 5:58 AM)
Low71 °F (Aug 16, 5:58 AM)40% (Aug 14, 10:58 AM)29.89 "Hg (Aug 12, 4:58 PM)
Average83 °F67%30.00 "Hg
* Reported Aug 7 5:58 AM — Aug 22 5:58 AM, Wright, Weather by CustomWeather, © 2014

Note: Actual official high and low records may vary slightly from our data, if they occured in-between our weather recording intervals... More about our weather records

Advertising

Wright weather history for previous 24 hours

 ConditionsComfort  
Time TempWeatherWind HumidityBarometerVisibility
5:58 AM
Aug 22
79 °FClear.6 mph80%30.06 "Hg10 mi
4:58 AM79 °FClear.6 mph78%30.05 "Hg10 mi
3:58 AM78 °FClear.5 mph82%30.04 "Hg10 mi
2:58 AM81 °FClear.3 mph71%30.04 "Hg10 mi
1:58 AM82 °FClear.5 mph68%30.06 "Hg10 mi
12:58 AM83 °FClear.5 mph68%30.07 "Hg10 mi
11:58 PM
Aug 21
83 °FClear.5 mph67%30.09 "Hg10 mi
10:58 PM84 °FClear.5 mph65%30.11 "Hg10 mi
9:58 PM85 °FClear.1 mph67%30.11 "Hg10 mi
8:58 PM85 °FClear.5 mph64%30.09 "Hg10 mi
7:58 PM85 °FClear.5 mph70%30.09 "Hg10 mi
6:59 PM86 °FScattered clouds.7 mph66%30.09 "Hg10 mi
5:58 PM86 °FSunny.7 mph66%30.07 "Hg10 mi
4:58 PM86 °FSunny.6 mph68%30.06 "Hg10 mi
3:58 PM87 °FScattered clouds.8 mph63%30.06 "Hg10 mi
2:58 PM91 °FThunderstorms. Scattered clouds.9 mph56%30.09 "Hg10 mi
1:58 PM91 °FScattered clouds.10 mph53%30.11 "Hg10 mi
12:58 PM91 °FScattered clouds.8 mph55%30.12 "Hg10 mi
11:58 AM91 °FScattered clouds.8 mph55%30.12 "Hg10 mi
10:58 AM90 °FSunny.3 mph53%30.14 "Hg10 mi
9:58 AM89 °FSunny.7 mph58%30.14 "Hg10 mi
8:58 AM85 °FSunny.9 mph68%30.14 "Hg10 mi
7:58 AM82 °FSunny.6 mph78%30.14 "Hg10 mi
Weather by CustomWeather, © 2014

See weather overviewHow to use our weather pages